Time,TemperatureF,DewpointF,PressureIn,WindDirection,WindDirectionDegrees,WindSpeedMPH,WindSpeedGustMPH,Humidity,HourlyPrecipIn,Conditions,Clouds,dailyrainin,SoftwareType,DateUTC
2013-03-04 00:04:00,17.7,14.0,29.82,NNW,331,4.0,13.0,85,0.00,,,0.00,weatherlink.com 1.10,2013-03-04 05:04:00,
2013-03-04 00:19:00,17.6,14.0,29.81,NW,305,9.0,12.0,86,0.00,,,0.00,weatherlink.com 1.10,2013-03-04 05:19:00,
2013-03-04 00:34:00,17.5,14.0,29.81,NNW,348,8.0,10.0,87,0.00,,,0.00,weatherlink.com 1.10,2013-03-04 05:34:00,
2013-03-04 00:49:00,17.4,15.0,29.82,WSW,248,8.0,15.0,88,0.00,,,0.00,weatherlink.com 1.10,2013-03-04 05:49:00,
2013-03-04 01:04:00,17.4,15.0,29.82,NW,316,7.0,14.0,89,0.00,,,0.00,weatherlink.com 1.10,2013-03-04 06:04:00,
2013-03-04 01:20:00,17.4,15.0,29.82,NW,323,4.0,10.0,90,0.00,,,0.00,weatherlink.com 1.10,2013-03-04 06:20:00,
2013-03-04 01:34:00,17.5,15.0,29.82,NW,323,8.0,14.0,90,0.00,,,0.00,weatherlink.com 1.10,2013-03-04 06:34:00,
2013-03-04 01:50:00,17.5,15.0,29.82,NW,319,8.0,16.0,91,0.00,,,0.00,weatherlink.com 1.10,2013-03-04 06:50:00,
2013-03-04 02:05:00,17.5,15.0,29.82,NNW,336,9.0,17.0,91,0.00,,,0.00,weatherlink.com 1.10,2013-03-04 07:05:00,
2013-03-04 02:20:00,17.7,16.0,29.82,NW,324,6.0,13.0,91,0.00,,,0.00,weatherlink.com 1.10,2013-03-04 07:20:00,
2013-03-04 02:35:00,17.9,16.0,29.82,NNW,336,11.0,14.0,91,0.00,,,0.00,weatherlink.com 1.10,2013-03-04 07:35:00,
2013-03-04 02:50:00,18.0,16.0,29.82,NNW,346,11.0,12.0,92,0.00,,,0.00,weatherlink.com 1.10,2013-03-04 07:50:00,
2013-03-04 03:05:00,18.1,16.0,29.82,NW,304,9.0,15.0,92,0.00,,,0.00,weatherlink.com 1.10,2013-03-04 08:05:00,
2013-03-04 03:20:00,18.3,16.0,29.82,NW,324,6.0,16.0,92,0.00,,,0.00,weatherlink.com 1.10,2013-03-04 08:20:00,
2013-03-04 03:35:00,18.5,17.0,29.82,NNW,340,12.0,14.0,92,0.00,,,0.00,weatherlink.com 1.10,2013-03-04 08:35:00,
2013-03-04 03:50:00,18.6,16.0,29.82,WSW,254,10.0,16.0,91,0.00,,,0.00,weatherlink.com 1.10,2013-03-04 08:50:00,
2013-03-04 04:05:00,18.8,17.0,29.83,NW,326,8.0,15.0,91,0.00,,,0.00,weatherlink.com 1.10,2013-03-04 09:05:00,
2013-03-04 04:20:00,18.9,17.0,29.82,West,277,5.0,11.0,90,0.00,,,0.00,weatherlink.com 1.10,2013-03-04 09:20:00,
2013-03-04 04:35:00,19.0,16.0,29.83,NW,323,7.0,12.0,89,0.00,,,0.00,weatherlink.com 1.10,2013-03-04 09:35:00,
2013-03-04 04:50:00,19.2,16.0,29.83,NW,309,9.0,13.0,88,0.00,,,0.00,weatherlink.com 1.10,2013-03-04 09:50:00,
2013-03-04 05:06:00,19.2,16.0,29.83,NNW,346,13.0,14.0,88,0.00,,,0.00,weatherlink.com 1.10,2013-03-04 10:06:00,
2013-03-04 05:22:00,19.2,16.0,29.83,NNW,331,7.0,16.0,88,0.00,,,0.00,weatherlink.com 1.10,2013-03-04 10:22:00,
2013-03-04 05:36:00,19.1,16.0,29.84,NW,322,8.0,19.0,88,0.00,,,0.00,weatherlink.com 1.10,2013-03-04 10:36:00,
2013-03-04 05:51:00,19.0,16.0,29.84,West,267,12.0,18.0,88,0.00,,,0.00,weatherlink.com 1.10,2013-03-04 10:51:00,
2013-03-04 06:06:00,18.9,16.0,29.84,West,270,7.0,19.0,88,0.00,,,0.00,weatherlink.com 1.10,2013-03-04 11:06:00,
2013-03-04 06:21:00,18.9,16.0,29.85,WNW,302,4.0,15.0,88,0.00,,,0.00,weatherlink.com 1.10,2013-03-04 11:21:00,
2013-03-04 06:36:00,18.9,16.0,29.85,NW,305,10.0,17.0,87,0.00,,,0.00,weatherlink.com 1.10,2013-03-04 11:36:00,
2013-03-04 07:01:00,18.9,16.0,29.85,NNW,330,10.0,15.0,87,0.00,,,0.00,weatherlink.com 1.10,2013-03-04 12:01:00,
2013-03-04 07:07:00,18.9,16.0,29.85,WSW,257,3.0,15.0,87,0.00,,,0.00,weatherlink.com 1.10,2013-03-04 12:07:00,
2013-03-04 07:22:00,18.9,16.0,29.85,NW,317,8.0,16.0,87,0.00,,,0.00,weatherlink.com 1.10,2013-03-04 12:22:00,
2013-03-04 07:37:00,18.9,16.0,29.85,West,260,6.0,19.0,87,0.00,,,0.00,weatherlink.com 1.10,2013-03-04 12:37:00,
2013-03-04 07:52:00,19.0,16.0,29.85,NNW,348,12.0,16.0,86,0.00,,,0.00,weatherlink.com 1.10,2013-03-04 12:52:00,
2013-03-04 08:07:00,19.0,16.0,29.86,NW,318,5.0,17.0,86,0.00,,,0.00,weatherlink.com 1.10,2013-03-04 13:07:00,
2013-03-04 08:22:00,19.0,16.0,29.85,NW,325,11.0,19.0,86,0.00,,,0.00,weatherlink.com 1.10,2013-03-04 13:22:00,
2013-03-04 08:37:00,19.1,16.0,29.85,NNW,340,8.0,15.0,86,0.00,,,0.00,weatherlink.com 1.10,2013-03-04 13:37:00,
2013-03-04 08:52:00,19.3,16.0,29.85,NNW,333,7.0,18.0,85,0.00,,,0.00,weatherlink.com 1.10,2013-03-04 13:52:00,
2013-03-04 09:07:00,19.4,15.0,29.85,SW,227,14.0,18.0,84,0.00,,,0.00,weatherlink.com 1.10,2013-03-04 14:07:00,
2013-03-04 09:23:00,19.8,15.0,29.85,NW,314,10.0,19.0,83,0.00,,,0.00,weatherlink.com 1.10,2013-03-04 14:23:00,
2013-03-04 09:38:00,19.9,16.0,29.85,WSW,253,15.0,22.0,83,0.00,,,0.00,weatherlink.com 1.10,2013-03-04 14:38:00,
2013-03-04 09:53:00,20.3,16.0,29.85,NW,313,3.0,17.0,83,0.00,,,0.00,weatherlink.com 1.10,2013-03-04 14:53:00,
2013-03-04 10:08:00,20.7,16.0,29.86,WNW,299,13.0,22.0,81,0.00,,,0.00,weatherlink.com 1.10,2013-03-04 15:08:00,
2013-03-04 10:23:00,20.9,16.0,29.86,WNW,299,8.0,19.0,81,0.00,,,0.00,weatherlink.com 1.10,2013-03-04 15:23:00,
2013-03-04 10:38:00,21.2,17.0,29.86,NW,309,8.0,18.0,82,0.00,,,0.00,weatherlink.com 1.10,2013-03-04 15:38:00,
2013-03-04 10:53:00,21.2,16.0,29.86,NNW,331,9.0,24.0,81,0.00,,,0.00,weatherlink.com 1.10,2013-03-04 15:53:00,
2013-03-04 11:08:00,21.3,17.0,29.86,NW,313,9.0,17.0,82,0.00,,,0.00,weatherlink.com 1.10,2013-03-04 16:08:00,
2013-03-04 11:23:00,21.2,16.0,29.86,NW,315,11.0,18.0,81,0.00,,,0.00,weatherlink.com 1.10,2013-03-04 16:23:00,
2013-03-04 11:39:00,21.3,17.0,29.86,NW,311,9.0,19.0,82,0.00,,,0.00,weatherlink.com 1.10,2013-03-04 16:39:00,
2013-03-04 11:55:00,21.5,17.0,29.85,WNW,302,14.0,21.0,81,0.00,,,0.00,weatherlink.com 1.10,2013-03-04 16:55:00,
2013-03-04 12:09:00,22.0,17.0,29.85,NNW,336,15.0,23.0,80,0.00,,,0.00,weatherlink.com 1.10,2013-03-04 17:09:00,
2013-03-04 12:24:00,22.4,17.0,29.85,NW,324,10.0,17.0,79,0.00,,,0.00,weatherlink.com 1.10,2013-03-04 17:24:00,
2013-03-04 12:39:00,22.2,17.0,29.85,NNW,336,13.0,18.0,80,0.00,,,0.00,weatherlink.com 1.10,2013-03-04 17:39:00,
2013-03-04 12:54:00,22.4,17.0,29.84,NNW,329,16.0,17.0,79,0.00,,,0.00,weatherlink.com 1.10,2013-03-04 17:54:00,
2013-03-04 13:09:00,22.0,16.0,29.84,WNW,300,12.0,20.0,79,0.00,,,0.00,weatherlink.com 1.10,2013-03-04 18:09:00,
2013-03-04 13:24:00,22.4,17.0,29.84,NW,315,13.0,16.0,79,0.00,,,0.00,weatherlink.com 1.10,2013-03-04 18:24:00,
2013-03-04 13:39:00,22.2,17.0,29.84,WNW,288,9.0,22.0,80,0.00,,,0.00,weatherlink.com 1.10,2013-03-04 18:39:00,
2013-03-04 13:54:00,22.5,17.0,29.85,WNW,303,13.0,20.0,79,0.00,,,0.00,weatherlink.com 1.10,2013-03-04 18:54:00,
2013-03-04 14:11:00,22.5,17.0,29.85,NW,317,9.0,17.0,80,0.00,,,0.00,weatherlink.com 1.10,2013-03-04 19:11:00,
2013-03-04 14:25:00,22.5,17.0,29.85,WNW,294,10.0,22.0,80,0.00,,,0.00,weatherlink.com 1.10,2013-03-04 19:25:00,
2013-03-04 14:40:00,22.8,17.0,29.85,NW,322,10.0,20.0,79,0.00,,,0.00,weatherlink.com 1.10,2013-03-04 19:40:00,
2013-03-04 14:55:00,22.9,17.0,29.86,North,360,12.0,23.0,78,0.00,,,0.00,weatherlink.com 1.10,2013-03-04 19:55:00,
2013-03-04 15:10:00,22.9,17.0,29.86,NNW,333,9.0,20.0,78,0.00,,,0.00,weatherlink.com 1.10,2013-03-04 20:10:00,
2013-03-04 15:25:00,22.8,17.0,29.86,WNW,289,9.0,17.0,79,0.00,,,0.00,weatherlink.com 1.10,2013-03-04 20:25:00,
2013-03-04 15:40:00,22.5,17.0,29.87,NW,323,14.0,18.0,80,0.00,,,0.00,weatherlink.com 1.10,2013-03-04 20:40:00,
2013-03-04 15:55:00,22.5,18.0,29.87,WNW,302,7.0,14.0,81,0.00,,,0.00,weatherlink.com 1.10,2013-03-04 20:55:00,
2013-03-04 16:10:00,22.2,17.0,29.87,NW,304,7.0,20.0,81,0.00,,,0.00,weatherlink.com 1.10,2013-03-04 21:10:00,
2013-03-04 16:26:00,21.9,17.0,29.87,NNW,329,13.0,16.0,82,0.00,,,0.00,weatherlink.com 1.10,2013-03-04 21:26:00,
2013-03-04 16:40:00,21.7,17.0,29.88,NW,305,7.0,19.0,83,0.00,,,0.00,weatherlink.com 1.10,2013-03-04 21:40:00,
2013-03-04 16:57:00,21.6,18.0,29.88,WNW,293,9.0,18.0,84,0.00,,,0.00,weatherlink.com 1.10,2013-03-04 21:57:00,
2013-03-04 17:11:00,21.7,18.0,29.89,NW,311,7.0,16.0,84,0.00,,,0.00,weatherlink.com 1.10,2013-03-04 22:11:00,
2013-03-04 17:26:00,21.7,18.0,29.89,WNW,282,8.0,19.0,84,0.00,,,0.00,weatherlink.com 1.10,2013-03-04 22:26:00,
2013-03-04 17:41:00,21.6,18.0,29.90,NNW,327,16.0,19.0,84,0.00,,,0.00,weatherlink.com 1.10,2013-03-04 22:41:00,
2013-03-04 17:56:00,21.6,18.0,29.90,WNW,299,13.0,19.0,84,0.00,,,0.00,weatherlink.com 1.10,2013-03-04 22:56:00,
2013-03-04 18:11:00,21.5,17.0,29.91,NNW,335,12.0,19.0,84,0.00,,,0.00,weatherlink.com 1.10,2013-03-04 23:11:00,
2013-03-04 18:27:00,21.5,18.0,29.91,NW,309,11.0,22.0,85,0.00,,,0.00,weatherlink.com 1.10,2013-03-04 23:27:00,
2013-03-04 18:41:00,21.5,17.0,29.92,WNW,302,14.0,19.0,84,0.00,,,0.00,weatherlink.com 1.10,2013-03-04 23:41:00,
2013-03-04 18:56:00,21.5,17.0,29.92,NW,317,12.0,16.0,84,0.00,,,0.00,weatherlink.com 1.10,2013-03-04 23:56:00,
2013-03-04 19:11:00,21.6,18.0,29.92,NW,324,15.0,24.0,84,0.00,,,0.00,weatherlink.com 1.10,2013-03-05 00:11:00,
2013-03-04 19:26:00,21.6,20.0,29.93,NW,323,11.0,23.0,92,0.00,,,0.00,weatherlink.com 1.10,2013-03-05 00:26:00,
2013-03-04 19:42:00,21.7,18.0,29.93,NNW,335,15.0,22.0,84,0.00,,,0.00,weatherlink.com 1.10,2013-03-05 00:42:00,
2013-03-04 19:57:00,21.7,17.0,29.93,NNW,327,3.0,19.0,83,0.00,,,0.00,weatherlink.com 1.10,2013-03-05 00:57:00,
2013-03-04 20:12:00,21.8,17.0,29.94,North,5,8.0,17.0,83,0.00,,,0.00,weatherlink.com 1.10,2013-03-05 01:12:00,
2013-03-04 20:27:00,21.8,17.0,29.94,WSW,239,17.0,17.0,83,0.00,,,0.00,weatherlink.com 1.10,2013-03-05 01:27:00,
2013-03-04 20:43:00,21.9,18.0,29.94,NW,321,9.0,18.0,83,0.00,,,0.00,weatherlink.com 1.10,2013-03-05 01:43:00,
2013-03-04 20:57:00,21.9,18.0,29.95,NW,324,18.0,18.0,84,0.00,,,0.00,weatherlink.com 1.10,2013-03-05 01:57:00,
2013-03-04 21:12:00,21.9,18.0,29.95,NW,321,7.0,16.0,84,0.00,,,0.00,weatherlink.com 1.10,2013-03-05 02:12:00,
2013-03-04 21:27:00,22.0,18.0,29.96,NW,317,5.0,13.0,84,0.00,,,0.00,weatherlink.com 1.10,2013-03-05 02:27:00,
2013-03-04 21:42:00,22.0,18.0,29.96,North,360,8.0,15.0,85,0.00,,,0.00,weatherlink.com 1.10,2013-03-05 02:42:00,
2013-03-04 21:58:00,22.0,18.0,29.96,NNW,336,13.0,14.0,85,0.00,,,0.00,weatherlink.com 1.10,2013-03-05 02:58:00,
2013-03-04 22:13:00,22.0,19.0,29.97,NW,306,13.0,13.0,86,0.00,,,0.00,weatherlink.com 1.10,2013-03-05 03:13:00,
2013-03-04 22:28:00,22.1,19.0,29.97,NW,318,12.0,14.0,86,0.00,,,0.00,weatherlink.com 1.10,2013-03-05 03:28:00,
2013-03-04 22:43:00,22.1,19.0,29.96,NNW,331,6.0,17.0,87,0.00,,,0.00,weatherlink.com 1.10,2013-03-05 03:43:00,
2013-03-04 22:58:00,22.1,19.0,29.96,NNW,342,6.0,12.0,88,0.00,,,0.00,weatherlink.com 1.10,2013-03-05 03:58:00,
2013-03-04 23:13:00,22.1,19.0,29.96,NNW,336,10.0,14.0,88,0.00,,,0.00,weatherlink.com 1.10,2013-03-05 04:13:00,
2013-03-04 23:29:00,22.1,19.0,29.96,NW,311,14.0,14.0,89,0.00,,,0.00,weatherlink.com 1.10,2013-03-05 04:29:00,
2013-03-04 23:43:00,22.2,20.0,29.97,NW,325,7.0,14.0,89,0.00,,,0.00,weatherlink.com 1.10,2013-03-05 04:43:00,
2013-03-04 23:58:00,22.2,20.0,29.97,NNW,329,10.0,10.0,89,0.00,,,0.00,weatherlink.com 1.10,2013-03-05 04:58:00,